Precipitable_Water
0.23 0.24 0.23 0.23 0.22 0.22 0.20 0.20 0.18 0.16 0.16 0.16 0.18 0.22 0.27 0.35 0.41 0.41 0.42 0.43 0.44 0.45 0.47 0.47 0.47 0.50 0.51 0.50 0.52 0.52 0.47 0.48 0.43 0.54 0.79 0.92 1.10 1.27 1.33 1.36 1.40 1.38 1.28
0.24 0.24 0.23 0.22 0.22 0.21 0.20 0.20 0.19 0.15 0.16 0.15 0.16 0.20 0.27 0.35 0.40 0.41 0.42 0.45 0.45 0.45 0.47 0.49 0.49 0.53 0.52 0.50 0.57 0.51 0.53 0.56 0.65 0.61 0.67 0.75 0.97 1.09 1.22 1.29 1.32 1.41 1.30
0.24 0.23 0.22 0.22 0.21 0.20 0.20 0.19 0.17 0.15 0.16 0.16 0.15 0.17 0.26 0.34 0.39 0.42 0.44 0.46 0.46 0.47 0.49 0.51 0.53 0.53 0.53 0.58 0.61 0.57 0.63 0.70 0.68 0.69 0.70 0.85 0.93 1.05 1.20 1.31 1.39 1.43 1.33
0.24 0.22 0.21 0.22 0.21 0.20 0.20 0.19 0.15 0.15 0.16 0.16 0.15 0.16 0.23 0.33 0.38 0.42 0.46 0.48 0.47 0.48 0.51 0.53 0.54 0.55 0.57 0.58 0.64 0.68 0.65 0.60 0.76 0.75 0.83 0.94 1.01 1.10 1.22 1.27 1.27 1.41 1.24
0.23 0.21 0.21 0.22 0.21 0.20 0.19 0.18 0.14 0.14 0.16 0.17 0.15 0.15 0.19 0.30 0.36 0.42 0.47 0.49 0.48 0.49 0.52 0.53 0.55 0.56 0.59 0.60 0.64 0.67 0.68 0.73 0.71 0.77 0.79 0.89 0.95 1.03 1.09 1.25 1.28 1.27 1.25
0.23 0.21 0.22 0.22 0.20 0.19 0.18 0.16 0.13 0.14 0.15 0.15 0.15 0.15 0.16 0.25 0.33 0.41 0.47 0.49 0.51 0.49 0.53 0.55 0.56 0.61 0.61 0.66 0.65 0.68 0.64 0.75 0.76 0.67 0.76 0.80 0.97 1.05 1.14 1.22 1.24 1.16 1.05
0.23 0.22 0.22 0.21 0.19 0.19 0.17 0.14 0.12 0.14 0.14 0.13 0.14 0.16 0.16 0.20 0.27 0.37 0.44 0.49 0.50 0.52 0.54 0.52 0.54 0.57 0.60 0.63 0.64 0.69 0.69 0.71 0.76 0.81 0.86 0.86 0.95 1.06 1.15 1.16 1.26 1.17 1.08
0.22 0.21 0.22 0.21 0.19 0.19 0.16 0.13 0.13 0.13 0.13 0.13 0.12 0.14 0.16 0.19 0.22 0.28 0.39 0.46 0.52 0.53 0.54 0.54 0.57 0.60 0.61 0.66 0.66 0.69 0.70 0.71 0.72 0.80 0.91 0.92 1.01 1.08 1.13 1.27 1.24 1.18 1.19
0.22 0.21 0.22 0.21 0.18 0.17 0.14 0.12 0.13 0.13 0.12 0.12 0.12 0.12 0.14 0.18 0.19 0.22 0.29 0.38 0.46 0.51 0.55 0.57 0.58 0.59 0.61 0.67 0.69 0.70 0.73 0.79 0.91 0.94 0.98 1.01 1.07 1.12 1.20 1.28 1.22 1.15 1.09
0.22 0.22 0.22 0.21 0.19 0.17 0.14 0.12 0.13 0.13 0.12 0.12 0.11 0.11 0.12 0.13 0.18 0.20 0.21 0.27 0.37 0.45 0.50 0.55 0.57 0.59 0.62 0.66 0.66 0.66 0.69 0.77 0.87 0.93 0.98 0.99 1.05 1.13 1.17 1.21 1.26 1.12 1.10
0.24 0.23 0.22 0.21 0.19 0.17 0.14 0.13 0.13 0.12 0.12 0.11 0.11 0.11 0.10 0.12 0.14 0.16 0.19 0.19 0.24 0.34 0.43 0.49 0.55 0.59 0.63 0.66 0.69 0.71 0.75 0.85 0.90 0.93 0.95 0.98 1.04 1.07 1.11 1.16 1.21 1.19 1.14
0.24 0.22 0.20 0.19 0.18 0.17 0.14 0.14 0.14 0.13 0.11 0.11 0.11 0.10 0.11 0.10 0.11 0.13 0.14 0.16 0.18 0.20 0.31 0.41 0.48 0.56 0.63 0.68 0.70 0.71 0.76 0.85 0.88 0.89 0.91 0.92 0.94 0.97 1.02 1.07 1.11 1.14 1.18
0.22 0.20 0.18 0.18 0.17 0.17 0.14 0.14 0.14 0.14 0.13 0.12 0.11 0.10 0.11 0.12 0.10 0.10 0.11 0.12 0.13 0.14 0.18 0.23 0.31 0.42 0.51 0.61 0.67 0.73 0.78 0.80 0.82 0.82 0.83 0.85 0.89 0.93 0.98 1.01 1.05 1.08 1.11
0.20 0.18 0.16 0.15 0.15 0.16 0.15 0.15 0.15 0.15 0.14 0.14 0.13 0.12 0.11 0.12 0.11 0.11 0.09 0.09 0.09 0.10 0.11 0.13 0.17 0.22 0.31 0.39 0.47 0.58 0.70 0.74 0.75 0.77 0.79 0.82 0.86 0.88 0.91 0.94 0.94 0.95 0.98
0.20 0.17 0.16 0.15 0.15 0.16 0.16 0.16 0.16 0.18 0.18 0.16 0.16 0.16 0.13 0.11 0.13 0.13 0.10 0.09 0.08 0.08 0.08 0.08 0.09 0.12 0.16 0.21 0.27 0.35 0.45 0.52 0.60 0.66 0.72 0.75 0.77 0.80 0.83 0.87 0.88 0.89 0.88
0.20 0.18 0.17 0.16 0.15 0.15 0.16 0.17 0.19 0.19 0.20 0.20 0.20 0.18 0.17 0.16 0.14 0.13 0.12 0.10 0.09 0.08 0.07 0.06 0.07 0.09 0.10 0.12 0.15 0.18 0.25 0.31 0.36 0.40 0.46 0.50 0.57 0.66 0.73 0.77 0.80 0.80 0.79
0.21 0.20 0.18 0.18 0.17 0.15 0.15 0.15 0.15 0.17 0.19 0.19 0.19 0.19 0.18 0.16 0.15 0.14 0.12 0.11 0.11 0.09 0.08 0.07 0.07 0.07 0.08 0.09 0.11 0.12 0.14 0.18 0.21 0.23 0.27 0.30 0.34 0.38 0.42 0.45 0.52 0.61 0.69
0.23 0.22 0.20 0.20 0.19 0.18 0.16 0.16 0.16 0.15 0.15 0.16 0.18 0.18 0.18 0.16 0.15 0.14 0.13 0.11 0.10 0.11 0.10 0.09 0.09 0.09 0.09 0.09 0.09 0.09 0.11 0.13 0.15 0.16 0.17 0.19 0.20 0.21 0.23 0.24 0.28 0.31 0.35
0.24 0.23 0.22 0.22 0.22 0.20 0.20 0.18 0.17 0.16 0.16 0.16 0.17 0.17 0.17 0.17 0.15 0.15 0.13 0.11 0.10 0.10 0.11 0.10 0.10 0.10 0.10 0.10 0.10 0.10 0.10 0.11 0.13 0.14 0.14 0.15 0.15 0.16 0.16 0.16 0.18 0.18 0.19
0.25 0.25 0.25 0.24 0.23 0.22 0.21 0.19 0.18 0.17 0.16 0.16 0.16 0.16 0.17 0.16 0.14 0.14 0.13 0.13 0.12 0.11 0.11 0.11 0.11 0.11 0.10 0.10 0.10 0.10 0.10 0.11 0.12 0.13 0.13 0.13 0.13 0.14 0.14 0.14 0.14 0.13 0.15
0.25 0.26 0.26 0.26 0.25 0.24 0.22 0.20 0.19 0.18 0.17 0.16 0.16 0.18 0.19 0.16 0.15 0.15 0.14 0.14 0.13 0.13 0.12 0.11 0.11 0.11 0.11 0.11 0.11 0.10 0.10 0.10 0.11 0.11 0.12 0.12 0.12 0.12 0.12 0.13 0.12 0.12 0.13
0.25 0.25 0.26 0.26 0.26 0.25 0.24 0.24 0.21 0.19 0.18 0.18 0.18 0.17 0.19 0.18 0.17 0.16 0.16 0.16 0.15 0.15 0.15 0.13 0.12 0.12 0.12 0.11 0.11 0.10 0.10 0.10 0.11 0.11 0.11 0.11 0.11 0.11 0.11 0.11 0.11 0.11 0.11
0.25 0.25 0.25 0.26 0.26 0.26 0.25 0.25 0.23 0.21 0.19 0.19 0.19 0.18 0.17 0.18 0.18 0.18 0.17 0.17 0.17 0.16 0.16 0.15 0.14 0.13 0.13 0.13 0.13 0.12 0.10 0.10 0.11 0.11 0.10 0.10 0.10 0.10 0.10 0.10 0.10 0.09 0.10
0.24 0.25 0.25 0.25 0.26 0.26 0.25 0.25 0.25 0.23 0.22 0.21 0.20 0.20 0.19 0.18 0.18 0.19 0.19 0.19 0.18 0.18 0.18 0.17 0.16 0.15 0.14 0.13 0.14 0.14 0.14 0.13 0.13 0.12 0.11 0.10 0.10 0.10 0.10 0.10 0.10 0.10 0.09
0.24 0.25 0.25 0.25 0.25 0.26 0.26 0.26 0.26 0.25 0.23 0.23 0.23 0.22 0.21 0.21 0.20 0.20 0.20 0.21 0.21 0.20 0.20 0.19 0.18 0.17 0.17 0.16 0.14 0.14 0.15 0.15 0.14 0.14 0.14 0.13 0.11 0.11 0.11 0.11 0.11 0.11 0.10
0.24 0.25 0.25 0.26 0.26 0.27 0.27 0.27 0.26 0.26 0.25 0.25 0.24 0.24 0.24 0.23 0.22 0.22 0.22 0.22 0.22 0.22 0.22 0.22 0.21 0.20 0.19 0.19 0.18 0.17 0.16 0.16 0.16 0.16 0.15 0.14 0.13 0.13 0.13 0.12 0.12 0.12 0.12
Wind_Speed
23 25 26 29 31 33 35 37 38 38 36 35 33 33 33 31 31 30 26 25 24 22 20 18 16 17 23 31 34 36 39 39 41 42 42 44 44 47 46 51 50 51 57
22 24 26 28 31 33 35 37 37 37 36 35 33 32 32 31 32 29 27 26 25 22 20 20 19 22 29 33 33 35 37 38 40 41 42 41 41 45 45 45 49 50 57
21 23 26 28 30 33 35 36 37 36 36 35 32 32 31 31 32 29 27 28 25 24 24 24 23 27 30 31 33 34 35 37 37 39 39 40 39 40 42 43 49 54 55
20 23 25 28 30 32 34 36 37 36 36 35 32 32 31 32 32 29 27 29 27 26 26 27 28 31 29 32 32 32 33 35 36 37 37 39 38 37 39 44 46 53 53
20 23 25 27 30 32 34 36 37 37 36 36 32 32 31 32 32 29 28 29 28 28 29 29 31 31 32 31 30 31 32 32 34 34 35 36 37 34 36 44 46 50 50
20 22 24 26 29 31 33 35 37 37 37 37 32 32 32 33 34 30 30 29 30 29 30 31 30 30 32 29 30 30 30 30 30 32 32 34 34 33 37 44 50 52 46
19 22 24 26 28 31 33 34 36 37 38 39 34 32 32 33 34 32 30 30 31 31 32 32 31 29 28 27 29 28 28 27 29 29 30 31 31 31 39 41 49 49 44
19 21 23 25 28 30 32 34 35 36 38 39 38 33 32 32 34 33 31 30 31 32 32 33 32 31 29 27 27 27 26 26 26 28 28 25 27 30 40 43 46 48 44
19 21 23 25 27 29 31 33 35 36 38 39 40 35 33 32 34 34 33 31 31 31 31 31 31 31 29 27 26 26 25 25 26 26 23 22 23 28 36 46 46 47 42
19 21 23 24 26 28 30 32 34 35 37 39 41 40 35 32 33 34 35 32 32 30 30 29 30 29 29 29 26 24 24 24 22 22 22 20 21 27 32 44 43 43 42
18 20 22 24 25 27 29 31 32 35 36 38 40 41 40 35 32 33 34 33 32 31 30 29 28 28 28 28 27 27 26 26 25 24 21 21 24 26 27 37 38 39 38
18 20 22 24 26 27 29 30 31 33 36 37 39 41 42 40 36 33 33 33 32 32 30 28 28 27 27 27 27 26 25 25 25 24 23 22 22 22 24 31 33 35 33
17 20 22 23 25 27 28 29 30 32 33 35 38 39 41 41 40 37 34 32 31 31 30 29 28 27 26 25 24 23 23 24 23 24 24 24 23 22 23 25 26 29 29
16 19 21 23 25 27 28 30 30 31 32 33 35 37 39 40 41 40 36 33 31 30 29 28 28 27 26 24 22 21 22 22 22 22 22 21 21 20 20 20 22 22 24
15 17 20 22 24 26 28 29 30 31 31 32 33 34 36 37 39 40 40 36 33 31 29 27 26 25 25 25 23 21 21 19 18 17 17 17 17 18 18 17 18 18 18
14 15 17 19 21 24 26 28 30 31 31 32 32 32 33 34 36 38 39 40 38 36 33 31 29 27 25 23 22 22 20 19 17 16 16 15 14 14 14 15 15 15 15
12 13 15 17 19 21 23 25 27 28 30 31 32 32 33 33 33 34 36 37 38 38 37 36 34 31 28 26 24 22 20 18 17 15 14 13 13 12 12 11 11 11 11
10 11 13 15 16 18 20 22 24 26 27 28 30 31 32 32 32 32 32 33 34 35 34 34 34 33 32 30 28 25 22 19 18 17 15 13 12 10 9 9 8 8 8
8 9 11 12 14 15 17 19 21 22 24 25 27 28 29 30 30 30 31 31 31 31 31 31 31 30 30 29 28 27 25 23 20 17 15 14 12 10 9 7 6 5 6
6 7 8 10 11 12 13 15 17 19 20 22 23 24 25 26 27 27 28 28 28 28 28 27 27 27 26 25 25 24 23 21 20 18 16 14 12 10 8 6 5 3 2
4 4 5 7 8 9 10 11 13 14 16 18 19 20 22 23 23 24 24 25 25 25 25 25 24 24 23 22 21 20 19 18 17 16 14 12 11 9 8 6 4 2 1
3 3 2 3 5 6 8 9 10 10 12 13 15 16 18 19 20 20 21 21 22 22 22 22 22 22 22 21 19 18 17 16 14 13 12 11 10 9 7 7 6 5 5
4 3 1 1 2 3 5 6 7 7 8 9 11 12 13 15 16 16 17 17 18 18 19 19 19 19 19 19 18 18 16 15 13 12 11 11 10 9 9 9 9 9 9
6 5 3 2 1 2 3 4 5 5 6 6 7 8 9 10 11 12 13 13 14 15 15 15 16 16 16 16 16 15 15 15 14 13 13 12 13 12 13 13 13 14 14
8 7 5 4 4 4 4 4 5 5 5 5 6 6 7 8 8 9 10 11 11 12 13 13 14 14 14 15 15 15 16 16 16 16 15 16 16 16 16 17 17 17 18
10 9 8 7 6 6 6 6 6 6 7 7 7 8 8 8 9 9 10 10 11 12 13 14 14 15 15 16 16 17 18 18 19 19 19 20 20 20 20 21 21 21 21
Wind_Direction
356 358 360 1 1 1 2 1 1 1 4 4 4 6 6 8 9 10 15 17 18 23 32 43 68 100 126 137 144 150 155 158 160 162 163 163 166 166 168 170 172 173 176
0 2 3 4 4 5 5 5 5 6 8 8 9 11 12 14 14 17 21 22 22 34 42 51 79 105 119 132 136 145 150 154 157 156 162 163 162 168 170 172 177 177 175
5 6 7 7 8 8 8 9 9 11 11 12 14 15 17 19 20 24 30 30 36 47 57 66 86 103 116 127 129 138 145 149 154 159 159 161 161 166 171 171 169 170 173
9 10 11 11 12 12 13 13 14 15 16 16 19 20 23 24 25 31 37 37 49 56 60 79 91 104 111 122 127 131 140 147 151 156 159 161 160 162 168 170 169 170 172
14 14 14 15 16 16 17 18 18 19 19 20 24 26 28 30 31 37 41 46 54 61 72 80 93 100 107 115 122 128 135 143 151 155 158 162 167 169 165 171 168 168 172
18 18 18 19 20 20 21 21 22 23 24 25 28 31 33 35 36 42 48 51 58 69 74 81 92 98 105 108 115 120 129 137 148 156 162 164 167 171 170 170 173 172 174
22 21 22 23 24 24 24 25 27 28 29 29 32 35 38 39 40 47 52 58 64 72 76 80 89 95 104 108 111 116 123 133 141 148 154 162 169 172 174 175 176 178 178
26 27 26 28 27 28 28 29 30 31 32 33 35 39 42 44 45 50 56 63 68 75 80 81 84 89 98 102 110 113 119 126 136 145 149 158 170 177 182 179 176 176 177
32 31 31 31 31 31 33 33 34 35 36 37 38 42 45 49 49 53 58 65 71 77 81 82 83 86 88 99 104 113 116 120 128 135 139 150 162 172 178 179 180 180 181
38 37 36 36 36 36 36 37 38 39 40 40 41 43 47 51 53 56 60 67 71 77 80 82 81 84 87 92 101 107 113 120 124 129 134 134 147 157 166 176 178 181 184
43 41 40 39 39 39 39 40 41 42 43 43 44 45 48 52 56 58 61 66 72 75 79 80 82 83 85 90 94 100 111 115 109 116 122 129 132 144 157 171 177 183 186
49 45 43 43 43 43 42 43 45 45 46 46 46 47 49 52 55 59 63 67 70 74 76 79 81 83 86 88 93 97 104 111 104 104 111 118 128 134 145 159 170 179 183
55 51 48 46 45 45 45 46 47 47 48 48 49 49 50 52 55 58 63 67 70 73 76 77 79 81 85 88 89 94 101 107 104 103 103 108 116 127 134 147 162 174 181
59 55 53 50 48 47 47 48 49 49 50 50 51 51 52 54 55 57 62 65 68 72 74 76 77 79 80 84 87 92 101 105 103 105 106 110 114 119 125 143 157 162 172
63 60 57 54 51 50 49 49 50 51 51 51 52 53 54 55 56 57 59 63 67 70 72 75 76 77 77 78 81 86 98 102 104 108 109 112 117 116 119 129 140 152 162
69 62 60 57 55 53 52 51 51 52 52 53 53 55 56 57 58 58 60 62 64 67 70 71 72 74 75 77 79 81 89 94 100 105 106 110 115 123 128 131 135 142 150
72 67 63 60 58 56 55 54 53 52 53 54 54 55 56 57 59 60 60 62 63 65 66 67 69 71 72 74 76 78 82 88 93 99 103 105 112 118 123 128 135 145 154
76 69 65 63 60 58 56 56 55 55 55 54 54 55 56 57 59 59 60 62 63 63 64 65 66 67 68 70 72 73 77 80 86 90 92 96 101 108 119 123 135 145 160
83 73 67 63 60 58 56 56 56 56 55 55 55 55 56 56 57 58 59 61 61 62 62 63 63 64 65 66 67 69 71 74 75 80 85 86 89 95 103 112 126 134 154
92 80 70 64 60 56 55 54 55 56 55 55 55 54 55 55 56 57 58 59 59 59 59 60 60 60 60 61 62 64 65 66 68 70 71 71 72 74 76 80 84 96 154
118 93 76 66 60 55 52 51 52 54 54 54 53 53 54 54 54 54 55 55 56 56 56 56 56 55 55 55 55 55 56 56 57 57 57 56 54 55 52 54 45 37 340
158 131 93 66 55 51 47 46 46 49 51 50 49 50 51 51 50 50 50 50 50 51 51 52 51 50 50 49 48 46 45 43 41 38 37 34 31 26 20 12 0 344 327
191 187 180 66 37 35 33 35 36 37 39 42 42 43 44 43 43 43 43 43 43 43 42 42 41 40 40 39 38 37 34 28 23 19 13 6 359 350 342 336 328 320 313
206 211 219 238 279 326 347 358 7 12 17 18 20 24 27 27 29 31 31 32 32 31 29 28 27 26 24 22 20 17 15 11 6 358 353 347 339 331 325 318 313 309 303
219 221 230 244 258 276 297 313 323 331 339 342 346 350 355 1 4 7 7 9 10 10 9 8 6 4 2 1 359 357 353 349 345 340 335 332 330 325 318 312 308 303 299
225 230 239 249 261 270 280 291 299 305 309 314 317 320 325 328 330 334 337 341 342 342 343 344 344 342 341 339 337 335 333 332 329 326 325 321 317 314 312 309 305 301 298